This is the latest recevied weather packets stored in our database for station/object EA5CLU-13. If no packets are shown the sender has not sent any weather packets the latest 10 day(s).
| Time | Temp. | Humidity | Pressure | Rain* | Wind** | Luminosity | Snow |
|---|---|---|---|---|---|---|---|
| 1787740442 | 26.11° C | - | 1016 hPa | 0 mm | - | - | - |
| 1787740141 | 26.11° C | - | 1015.9 hPa | 0 mm | - | - | - |
| 1787739843 | 25° C | - | 1015.9 hPa | 0 mm | - | - | - |
| 1787739543 | 25.56° C | - | 1015.7 hPa | 0 mm | - | - | - |
| 1787739243 | 25° C | - | 1015.7 hPa | 0 mm | - | - | - |
| 1787738942 | 24.44° C | - | 1015.7 hPa | 0 mm | - | - | - |
| 1787737743 | 22.78° C | - | 1015.9 hPa | 0 mm | - | - | - |
| 1787737443 | 22.78° C | - | 1016.2 hPa | 0 mm | - | - | - |
| 1787737141 | 22.78° C | - | 1016.4 hPa | 0 mm | - | - | - |
| 1787736843 | 22.78° C | - | 1016.5 hPa | 0 mm | - | - | - |
| 1787736543 | 23.33° C | - | 1017.5 hPa | 0 mm | - | - | - |
| 1787736241 | 23.33° C | - | 1017.1 hPa | 0 mm | - | - | - |
| 1787735943 | 22.78° C | - | 1017 hPa | 0 mm | - | - | - |
| 1787735646 | 23.33° C | - | 1016.4 hPa | 0 mm | - | - | - |
| 1787735343 | 23.33° C | - | 1016.2 hPa | 0 mm | - | - | - |
| 1787734616 | 23.33° C | - | 1014.7 hPa | 0 mm | - | - | - |
| 1787734316 | 23.89° C | - | 1015.6 hPa | 0 mm | - | - | - |
| 1787734016 | 23.89° C | - | 1015.3 hPa | 0 mm | - | - | - |
| 1787733415 | 22.22° C | - | 1015.2 hPa | 0 mm | - | - | - |
| 1787733117 | 21.67° C | - | 1015.2 hPa | 0 mm | - | - | - |
| 1787732216 | 21.67° C | - | 1015.3 hPa | 0 mm | - | - | - |
| 1787731917 | 21.67° C | - | 1015.6 hPa | 0 mm | - | - | - |
| 1787731616 | 21.67° C | - | 1015 hPa | 0 mm | - | - | - |
| 1787731316 | 21.67° C | - | 1015.3 hPa | 0 mm | - | - | - |
| 1787731017 | 21.67° C | - | 1017.4 hPa | 0 mm | - | - | - |
* Rain latest hour (hover to see other rain measurements)
** Current wind speed in m/s (hover to see current wind gust speed)